Simultaneous Nadir Overpasses (SNOs) Predictions

Prediction of SNOs over PacNW region [( 10.00, 139.50) to ( 22.70, 165.60)] between AQUA and NPP Satellites:

Table of predicted SNOs over PacNW region for the next 30.0 days since TLE Epoch: 4/10/2020
Index Date (AQUA) Time (AQUA) AQUA Lat,Lon Date (NPP) Time (NPP) NPP Lat,Lon Distance(km) Time Diff (sec)
1 04/14/2020 15:10:12 22.62, 159.82 04/14/2020 15:10:46 23.17, 157.23 272.42 34
2 04/22/2020 15:59:37 22.59, 147.45 04/22/2020 16:01:30 23.21, 144.56 304.98 113
3 04/30/2020 15:10:07 22.61, 159.83 04/30/2020 15:10:45 23.17, 157.24 272.53 38




NCC Satellite Simultaneous Nadir Overpasses (SNOs) Prediction Service
